QPF
0.01 0.01 0.00 0.00 0.00 0.01 0.01 0.03 0.01 0.02 0.02 0.01 0.01 0.01 0.00 0.00 0.00 0.01 0.01 0.00 0.00 0.00 0.00 0.00 0.00 0.00 0.00 0.01 0.01 0.00 0.00 0.01 0.01 0.00 0.00 0.00 0.00 0.01 0.01 0.02 0.03 0.04 0.04
0.01 0.02 0.02 0.03 0.02 0.02 0.03 0.04 0.02 0.05 0.03 0.03 0.02 0.00 0.00 0.00 0.00 0.00 0.00 0.01 0.00 0.00 0.00 0.00 0.01 0.01 0.01 0.01 0.00 0.00 0.00 0.00 0.00 0.00 0.00 0.00 0.00 0.01 0.01 0.02 0.03 0.05 0.04
0.03 0.04 0.05 0.06 0.06 0.06 0.06 0.06 0.05 0.06 0.06 0.05 0.03 0.02 0.01 0.00 0.00 0.00 0.00 0.00 0.00 0.00 0.00 0.01 0.02 0.02 0.02 0.01 0.01 0.01 0.00 0.00 0.00 0.00 0.00 0.00 0.00 0.00 0.01 0.01 0.02 0.03 0.03
0.06 0.12 0.12 0.10 0.12 0.10 0.10 0.17 0.14 0.14 0.15 0.11 0.07 0.03 0.01 0.01 0.00 0.00 0.00 0.00 0.00 0.00 0.00 0.01 0.03 0.02 0.02 0.02 0.02 0.02 0.01 0.00 0.00 0.00 0.00 0.00 0.00 0.00 0.00 0.00 0.01 0.01 0.02
0.10 0.17 0.16 0.19 0.18 0.19 0.20 0.16 0.20 0.25 0.24 0.20 0.11 0.04 0.02 0.01 0.01 0.00 0.00 0.00 0.00 0.00 0.00 0.01 0.01 0.01 0.02 0.02 0.03 0.02 0.01 0.01 0.00 0.00 0.00 0.00 0.00 0.00 0.00 0.00 0.00 0.00 0.01
0.17 0.20 0.20 0.21 0.23 0.26 0.24 0.23 0.22 0.22 0.20 0.19 0.11 0.04 0.02 0.01 0.01 0.00 0.00 0.00 0.00 0.00 0.00 0.00 0.02 0.03 0.03 0.03 0.03 0.03 0.03 0.02 0.01 0.00 0.00 0.00 0.00 0.00 0.00 0.00 0.00 0.01 0.01
0.18 0.20 0.23 0.26 0.23 0.23 0.22 0.22 0.23 0.22 0.20 0.22 0.16 0.08 0.03 0.01 0.00 0.00 0.00 0.00 0.00 0.00 0.00 0.00 0.02 0.04 0.07 0.05 0.03 0.04 0.05 0.04 0.03 0.01 0.01 0.01 0.01 0.01 0.00 0.00 0.00 0.00 0.01
0.21 0.21 0.22 0.22 0.21 0.19 0.19 0.18 0.20 0.20 0.18 0.20 0.18 0.13 0.07 0.02 0.01 0.00 0.00 0.00 0.00 0.00 0.00 0.00 0.01 0.04 0.06 0.09 0.11 0.06 0.05 0.06 0.06 0.05 0.03 0.02 0.01 0.01 0.01 0.00 0.00 0.00 0.00
0.25 0.23 0.20 0.19 0.18 0.17 0.15 0.14 0.14 0.15 0.14 0.14 0.15 0.16 0.11 0.06 0.03 0.00 0.00 0.01 0.01 0.01 0.00 0.01 0.01 0.04 0.06 0.11 0.15 0.12 0.05 0.03 0.04 0.06 0.07 0.04 0.03 0.01 0.01 0.01 0.01 0.01 0.01
0.24 0.22 0.17 0.14 0.13 0.12 0.12 0.11 0.13 0.15 0.16 0.14 0.14 0.16 0.15 0.12 0.08 0.02 0.00 0.01 0.03 0.04 0.03 0.03 0.03 0.04 0.05 0.08 0.16 0.20 0.15 0.07 0.05 0.05 0.07 0.06 0.05 0.03 0.01 0.02 0.02 0.02 0.02
0.18 0.17 0.16 0.13 0.11 0.10 0.11 0.11 0.13 0.13 0.14 0.13 0.13 0.13 0.14 0.14 0.15 0.10 0.03 0.03 0.05 0.07 0.07 0.06 0.07 0.08 0.11 0.14 0.23 0.26 0.29 0.18 0.10 0.06 0.05 0.05 0.05 0.04 0.03 0.02 0.04 0.06 0.06
0.12 0.13 0.14 0.12 0.11 0.10 0.10 0.10 0.11 0.12 0.13 0.13 0.12 0.11 0.10 0.10 0.11 0.12 0.06 0.06 0.07 0.09 0.12 0.13 0.15 0.16 0.16 0.17 0.24 0.35 0.33 0.20 0.11 0.08 0.06 0.04 0.04 0.03 0.03 0.03 0.05 0.07 0.09
0.11 0.10 0.10 0.09 0.10 0.11 0.11 0.12 0.12 0.13 0.13 0.12 0.11 0.10 0.09 0.09 0.09 0.10 0.08 0.06 0.07 0.09 0.13 0.17 0.17 0.17 0.17 0.20 0.25 0.25 0.19 0.14 0.08 0.06 0.06 0.06 0.05 0.04 0.02 0.02 0.02 0.04 0.06
0.13 0.13 0.13 0.12 0.11 0.10 0.08 0.09 0.09 0.10 0.09 0.08 0.07 0.07 0.08 0.08 0.07 0.07 0.06 0.05 0.05 0.07 0.11 0.12 0.12 0.11 0.13 0.16 0.17 0.12 0.09 0.07 0.05 0.04 0.04 0.04 0.04 0.04 0.03 0.03 0.02 0.02 0.02
0.18 0.17 0.15 0.13 0.12 0.10 0.08 0.08 0.09 0.09 0.08 0.08 0.08 0.09 0.10 0.09 0.08 0.07 0.05 0.04 0.03 0.03 0.05 0.06 0.05 0.04 0.05 0.07 0.08 0.07 0.12 0.09 0.04 0.02 0.02 0.02 0.02 0.02 0.02 0.02 0.01 0.01 0.01
0.19 0.19 0.17 0.16 0.14 0.12 0.10 0.09 0.10 0.10 0.09 0.10 0.10 0.11 0.11 0.10 0.08 0.07 0.06 0.04 0.04 0.04 0.04 0.04 0.04 0.04 0.04 0.04 0.04 0.05 0.09 0.07 0.04 0.02 0.02 0.01 0.01 0.01 0.01 0.01 0.01 0.01 0.01
0.24 0.23 0.20 0.18 0.17 0.13 0.11 0.10 0.10 0.10 0.10 0.12 0.12 0.11 0.09 0.06 0.06 0.04 0.03 0.04 0.04 0.04 0.04 0.05 0.06 0.07 0.07 0.07 0.07 0.09 0.10 0.09 0.08 0.05 0.03 0.02 0.01 0.01 0.01 0.01 0.01 0.01 0.01
0.24 0.22 0.19 0.16 0.14 0.12 0.11 0.10 0.09 0.10 0.11 0.12 0.10 0.08 0.05 0.03 0.02 0.02 0.02 0.03 0.04 0.05 0.05 0.07 0.08 0.08 0.09 0.09 0.09 0.10 0.09 0.10 0.12 0.10 0.06 0.04 0.03 0.02 0.02 0.02 0.02 0.02 0.03
0.17 0.15 0.14 0.12 0.10 0.08 0.08 0.10 0.10 0.11 0.11 0.09 0.06 0.03 0.01 0.01 0.01 0.01 0.02 0.02 0.03 0.04 0.06 0.08 0.08 0.08 0.09 0.08 0.08 0.10 0.11 0.15 0.15 0.12 0.09 0.06 0.04 0.03 0.03 0.02 0.03 0.05 0.07
0.12 0.11 0.12 0.11 0.10 0.10 0.11 0.11 0.11 0.09 0.08 0.04 0.02 0.00 0.00 0.00 0.00 0.00 0.01 0.01 0.02 0.03 0.04 0.04 0.04 0.04 0.04 0.04 0.05 0.07 0.10 0.15 0.16 0.13 0.12 0.10 0.09 0.07 0.05 0.04 0.04 0.06 0.12
0.10 0.10 0.11 0.12 0.12 0.12 0.10 0.10 0.11 0.07 0.04 0.02 0.00 0.00 0.00 0.00 0.00 0.00 0.00 0.00 0.00 0.01 0.01 0.01 0.01 0.01 0.01 0.01 0.02 0.04 0.06 0.09 0.13 0.12 0.12 0.13 0.14 0.12 0.10 0.08 0.08 0.10 0.18
0.07 0.07 0.08 0.08 0.06 0.04 0.03 0.03 0.05 0.04 0.02 0.01 0.01 0.00 0.00 0.00 0.00 0.00 0.00 0.00 0.00 0.00 0.00 0.01 0.00 0.00 0.00 0.01 0.02 0.03 0.03 0.04 0.06 0.09 0.12 0.16 0.17 0.19 0.17 0.13 0.11 0.11 0.19
0.05 0.06 0.05 0.03 0.02 0.01 0.01 0.01 0.01 0.02 0.01 0.01 0.01 0.01 0.00 0.00 0.00 0.00 0.00 0.00 0.00 0.00 0.00 0.00 0.00 0.00 0.00 0.00 0.02 0.04 0.04 0.05 0.05 0.06 0.08 0.12 0.15 0.20 0.21 0.16 0.11 0.11 0.15
0.06 0.06 0.04 0.02 0.00 0.00 0.00 0.00 0.00 0.01 0.01 0.00 0.00 0.00 0.00 0.00 0.00 0.00 0.00 0.00 0.00 0.00 0.00 0.00 0.00 0.00 0.00 0.00 0.01 0.03 0.05 0.07 0.08 0.06 0.06 0.09 0.12 0.15 0.15 0.13 0.08 0.08 0.10
0.06 0.06 0.04 0.01 0.00 0.00 0.00 0.00 0.00 0.01 0.00 0.00 0.00 0.00 0.00 0.00 0.00 0.00 0.00 0.00 0.00 0.00 0.00 0.00 0.00 0.00 0.00 0.00 0.00 0.01 0.02 0.05 0.07 0.07 0.05 0.07 0.11 0.14 0.16 0.16 0.11 0.08 0.07
0.07 0.05 0.03 0.02 0.01 0.00 0.00 0.00 0.00 0.00 0.00 0.00 0.00 0.00 0.00 0.00 0.00 0.00 0.00 0.00 0.00 0.00 0.00 0.00 0.00 0.00 0.00 0.00 0.00 0.00 0.01 0.01 0.04 0.06 0.05 0.06 0.08 0.12 0.16 0.18 0.16 0.13 0.11
MSLP
1011.80 1012.03 1012.22 1012.36 1012.48 1012.60 1012.73 1012.86 1012.97 1013.04 1013.05 1012.96 1012.78 1012.51 1012.21 1011.90 1011.65 1011.50 1011.47 1011.57 1011.77 1012.05 1012.35 1012.65 1012.89 1013.08 1013.19 1013.27 1013.32 1013.37 1013.46 1013.59 1013.77 1014.00 1014.27 1014.56 1014.87 1015.18 1015.49 1015.80 1016.12 1016.44 1016.76
1011.16 1011.45 1011.70 1011.92 1012.11 1012.28 1012.45 1012.60 1012.73 1012.81 1012.80 1012.70 1012.49 1012.19 1011.84 1011.47 1011.15 1010.91 1010.81 1010.84 1011.00 1011.27 1011.59 1011.92 1012.22 1012.47 1012.65 1012.78 1012.86 1012.94 1013.03 1013.15 1013.32 1013.54 1013.79 1014.08 1014.38 1014.69 1014.99 1015.29 1015.60 1015.92 1016.25
1010.61 1010.95 1011.27 1011.57 1011.83 1012.07 1012.29 1012.48 1012.64 1012.73 1012.73 1012.62 1012.39 1012.05 1011.64 1011.19 1010.76 1010.42 1010.20 1010.12 1010.20 1010.40 1010.70 1011.04 1011.38 1011.69 1011.94 1012.13 1012.28 1012.40 1012.52 1012.66 1012.84 1013.07 1013.33 1013.61 1013.91 1014.21 1014.51 1014.81 1015.11 1015.43 1015.77
1010.19 1010.57 1010.95 1011.31 1011.64 1011.95 1012.22 1012.46 1012.65 1012.76 1012.76 1012.65 1012.41 1012.04 1011.57 1011.04 1010.50 1010.03 1009.67 1009.46 1009.42 1009.53 1009.76 1010.07 1010.42 1010.76 1011.07 1011.33 1011.54 1011.72 1011.90 1012.08 1012.30 1012.55 1012.82 1013.12 1013.42 1013.72 1014.01 1014.31 1014.61 1014.92 1015.27
1009.88 1010.28 1010.70 1011.11 1011.50 1011.87 1012.19 1012.46 1012.68 1012.81 1012.83 1012.73 1012.48 1012.09 1011.58 1010.98 1010.36 1009.76 1009.27 1008.91 1008.73 1008.71 1008.85 1009.09 1009.42 1009.76 1010.10 1010.41 1010.68 1010.93 1011.17 1011.41 1011.67 1011.96 1012.27 1012.58 1012.89 1013.19 1013.48 1013.77 1014.06 1014.37 1014.72
1009.66 1010.06 1010.50 1010.94 1011.37 1011.77 1012.12 1012.42 1012.66 1012.81 1012.85 1012.77 1012.53 1012.14 1011.62 1010.99 1010.30 1009.62 1009.01 1008.53 1008.21 1008.06 1008.08 1008.23 1008.49 1008.81 1009.14 1009.47 1009.79 1010.09 1010.38 1010.69 1011.00 1011.33 1011.66 1012.00 1012.32 1012.62 1012.90 1013.17 1013.44 1013.74 1014.09
1009.49 1009.87 1010.31 1010.76 1011.20 1011.61 1011.98 1012.29 1012.54 1012.70 1012.76 1012.70 1012.50 1012.15 1011.65 1011.03 1010.33 1009.61 1008.93 1008.35 1007.92 1007.65 1007.55 1007.60 1007.77 1008.02 1008.32 1008.64 1008.97 1009.30 1009.64 1009.98 1010.33 1010.69 1011.05 1011.40 1011.72 1012.01 1012.28 1012.52 1012.77 1013.05 1013.38
1009.31 1009.67 1010.08 1010.52 1010.96 1011.36 1011.72 1012.03 1012.28 1012.45 1012.54 1012.51 1012.36 1012.07 1011.64 1011.08 1010.42 1009.72 1009.03 1008.40 1007.89 1007.53 1007.32 1007.27 1007.34 1007.51 1007.75 1008.03 1008.34 1008.66 1009.01 1009.37 1009.74 1010.11 1010.48 1010.83 1011.14 1011.42 1011.65 1011.86 1012.08 1012.32 1012.61
1009.11 1009.43 1009.82 1010.23 1010.64 1011.02 1011.36 1011.65 1011.89 1012.07 1012.18 1012.20 1012.12 1011.92 1011.58 1011.12 1010.55 1009.92 1009.27 1008.65 1008.12 1007.70 1007.42 1007.27 1007.25 1007.33 1007.48 1007.70 1007.95 1008.25 1008.57 1008.91 1009.28 1009.64 1010.00 1010.34 1010.63 1010.87 1011.07 1011.24 1011.41 1011.60 1011.85
1008.85 1009.14 1009.50 1009.88 1010.26 1010.61 1010.92 1011.18 1011.41 1011.59 1011.72 1011.80 1011.79 1011.68 1011.47 1011.13 1010.69 1010.17 1009.60 1009.04 1008.53 1008.10 1007.77 1007.55 1007.44 1007.43 1007.50 1007.64 1007.82 1008.05 1008.33 1008.63 1008.96 1009.30 1009.64 1009.94 1010.20 1010.41 1010.57 1010.70 1010.82 1010.96 1011.16
1008.55 1008.82 1009.14 1009.49 1009.83 1010.15 1010.42 1010.66 1010.87 1011.05 1011.21 1011.33 1011.40 1011.40 1011.30 1011.09 1010.79 1010.39 1009.94 1009.46 1009.00 1008.59 1008.25 1008.00 1007.83 1007.75 1007.73 1007.78 1007.89 1008.04 1008.25 1008.50 1008.78 1009.08 1009.37 1009.64 1009.87 1010.05 1010.18 1010.26 1010.34 1010.42 1010.56
1008.22 1008.47 1008.77 1009.09 1009.39 1009.67 1009.92 1010.13 1010.33 1010.51 1010.69 1010.85 1010.99 1011.07 1011.07 1010.99 1010.81 1010.54 1010.21 1009.83 1009.44 1009.08 1008.75 1008.49 1008.28 1008.14 1008.06 1008.04 1008.06 1008.14 1008.27 1008.45 1008.68 1008.93 1009.18 1009.42 1009.62 1009.78 1009.87 1009.93 1009.95 1009.99 1010.06
1007.89 1008.13 1008.41 1008.70 1008.97 1009.22 1009.44 1009.64 1009.82 1010.01 1010.20 1010.40 1010.58 1010.72 1010.81 1010.82 1010.74 1010.58 1010.35 1010.06 1009.76 1009.45 1009.16 1008.91 1008.69 1008.52 1008.39 1008.30 1008.26 1008.27 1008.33 1008.45 1008.61 1008.81 1009.03 1009.24 1009.42 1009.55 1009.63 1009.65 1009.64 1009.62 1009.63
1007.61 1007.83 1008.09 1008.35 1008.60 1008.83 1009.03 1009.21 1009.39 1009.58 1009.78 1009.99 1010.20 1010.38 1010.52 1010.59 1010.59 1010.51 1010.36 1010.16 1009.92 1009.68 1009.44 1009.21 1009.00 1008.82 1008.66 1008.53 1008.44 1008.38 1008.38 1008.44 1008.55 1008.70 1008.88 1009.07 1009.23 1009.34 1009.40 1009.40 1009.35 1009.27 1009.21
1007.40 1007.62 1007.85 1008.09 1008.31 1008.52 1008.70 1008.88 1009.05 1009.24 1009.45 1009.67 1009.88 1010.08 1010.24 1010.35 1010.39 1010.36 1010.27 1010.13 1009.96 1009.77 1009.59 1009.40 1009.22 1009.04 1008.87 1008.71 1008.58 1008.48 1008.42 1008.42 1008.48 1008.59 1008.74 1008.89 1009.03 1009.12 1009.16 1009.12 1009.02 1008.89 1008.74
1007.31 1007.51 1007.72 1007.93 1008.14 1008.32 1008.50 1008.67 1008.85 1009.04 1009.24 1009.46 1009.67 1009.87 1010.03 1010.15 1010.20 1010.20 1010.15 1010.06 1009.94 1009.82 1009.68 1009.54 1009.39 1009.23 1009.06 1008.89 1008.73 1008.59 1008.48 1008.43 1008.44 1008.50 1008.61 1008.72 1008.83 1008.89 1008.88 1008.80 1008.64 1008.43 1008.20
1007.37 1007.55 1007.73 1007.92 1008.10 1008.28 1008.44 1008.61 1008.79 1008.98 1009.18 1009.39 1009.60 1009.78 1009.94 1010.04 1010.10 1010.11 1010.09 1010.04 1009.97 1009.90 1009.81 1009.71 1009.60 1009.46 1009.30 1009.12 1008.93 1008.76 1008.61 1008.51 1008.47 1008.48 1008.53 1008.59 1008.65 1008.66 1008.60 1008.45 1008.22 1007.92 1007.59
1007.57 1007.73 1007.89 1008.06 1008.23 1008.39 1008.55 1008.71 1008.89 1009.08 1009.28 1009.48 1009.68 1009.85 1009.99 1010.09 1010.15 1010.17 1010.17 1010.15 1010.12 1010.09 1010.05 1009.99 1009.91 1009.79 1009.64 1009.45 1009.25 1009.04 1008.85 1008.69 1008.59 1008.54 1008.53 1008.53 1008.52 1008.46 1008.33 1008.10 1007.79 1007.40 1006.97
1007.90 1008.04 1008.19 1008.34 1008.49 1008.64 1008.80 1008.97 1009.15 1009.33 1009.53 1009.73 1009.91 1010.07 1010.19 1010.29 1010.35 1010.38 1010.40 1010.41 1010.42 1010.43 1010.42 1010.40 1010.34 1010.24 1010.09 1009.89 1009.67 1009.42 1009.19 1008.99 1008.83 1008.71 1008.63 1008.56 1008.47 1008.33 1008.12 1007.81 1007.41 1006.94 1006.42
1008.32 1008.45 1008.59 1008.73 1008.87 1009.02 1009.18 1009.34 1009.52 1009.71 1009.91 1010.10 1010.27 1010.42 1010.54 1010.63 1010.69 1010.74 1010.78 1010.81 1010.85 1010.88 1010.90 1010.90 1010.86 1010.76 1010.61 1010.40 1010.15 1009.88 1009.61 1009.36 1009.14 1008.97 1008.82 1008.68 1008.51 1008.30 1008.01 1007.62 1007.15 1006.61 1006.04
1008.77 1008.90 1009.04 1009.18 1009.32 1009.47 1009.63 1009.80 1009.98 1010.17 1010.36 1010.55 1010.72 1010.86 1010.98 1011.07 1011.13 1011.19 1011.23 1011.28 1011.34 1011.38 1011.42 1011.42 1011.38 1011.28 1011.12 1010.90 1010.63 1010.33 1010.03 1009.75 1009.49 1009.27 1009.07 1008.86 1008.64 1008.36 1008.01 1007.57 1007.06 1006.48 1005.88
1009.19 1009.33 1009.47 1009.62 1009.77 1009.92 1010.09 1010.27 1010.46 1010.65 1010.85 1011.04 1011.20 1011.34 1011.45 1011.54 1011.60 1011.66 1011.70 1011.75 1011.81 1011.85 1011.88 1011.87 1011.82 1011.71 1011.53 1011.30 1011.02 1010.71 1010.39 1010.09 1009.81 1009.56 1009.33 1009.09 1008.83 1008.51 1008.13 1007.67 1007.13 1006.55 1005.97
1009.52 1009.67 1009.83 1009.99 1010.15 1010.32 1010.50 1010.70 1010.90 1011.11 1011.32 1011.51 1011.67 1011.81 1011.92 1011.99 1012.05 1012.09 1012.12 1012.16 1012.19 1012.22 1012.22 1012.19 1012.12 1011.99 1011.80 1011.55 1011.27 1010.96 1010.64 1010.34 1010.06 1009.80 1009.56 1009.31 1009.04 1008.72 1008.33 1007.87 1007.36 1006.81 1006.27
1009.71 1009.88 1010.06 1010.23 1010.42 1010.61 1010.82 1011.04 1011.27 1011.51 1011.73 1011.92 1012.09 1012.23 1012.32 1012.39 1012.42 1012.44 1012.45 1012.46 1012.46 1012.45 1012.42 1012.36 1012.26 1012.10 1011.90 1011.65 1011.36 1011.06 1010.76 1010.48 1010.21 1009.97 1009.74 1009.51 1009.24 1008.94 1008.58 1008.16 1007.69 1007.20 1006.73
1009.74 1009.94 1010.14 1010.34 1010.55 1010.78 1011.03 1011.28 1011.55 1011.81 1012.05 1012.27 1012.44 1012.58 1012.67 1012.71 1012.73 1012.72 1012.70 1012.67 1012.63 1012.58 1012.51 1012.42 1012.28 1012.11 1011.89 1011.64 1011.36 1011.08 1010.80 1010.53 1010.29 1010.08 1009.87 1009.66 1009.42 1009.15 1008.83 1008.46 1008.05 1007.63 1007.24
1009.64 1009.87 1010.09 1010.33 1010.57 1010.84 1011.13 1011.43 1011.73 1012.03 1012.30 1012.54 1012.72 1012.86 1012.94 1012.98 1012.97 1012.94 1012.88 1012.82 1012.75 1012.66 1012.56 1012.44 1012.28 1012.09 1011.87 1011.62 1011.35 1011.07 1010.81 1010.57 1010.35 1010.15 1009.97 1009.78 1009.57 1009.33 1009.05 1008.73 1008.38 1008.04 1007.72
Thickness
5796 5796 5794 5791 5789 5788 5787 5784 5783 5783 5781 5781 5781 5782 5783 5783 5783 5784 5784 5783 5781 5779 5778 5775 5773 5770 5768 5767 5765 5764 5763 5761 5760 5757 5755 5752 5750 5747 5744 5742 5738 5735 5732
5796 5794 5791 5788 5785 5784 5784 5782 5781 5779 5778 5778 5778 5780 5781 5782 5783 5784 5784 5784 5783 5781 5779 5777 5775 5772 5770 5768 5766 5765 5763 5762 5760 5758 5756 5753 5750 5748 5745 5743 5740 5737 5734
5794 5791 5787 5784 5782 5780 5779 5777 5775 5774 5772 5773 5773 5776 5778 5780 5781 5782 5783 5783 5783 5781 5780 5778 5776 5774 5771 5769 5767 5765 5763 5761 5760 5758 5755 5753 5751 5748 5746 5743 5741 5738 5735
5791 5788 5783 5779 5777 5775 5773 5770 5768 5764 5762 5762 5764 5768 5771 5775 5778 5780 5782 5782 5783 5783 5783 5780 5777 5774 5771 5769 5767 5765 5763 5761 5759 5757 5754 5752 5750 5748 5745 5743 5740 5738 5735
5787 5783 5778 5775 5772 5769 5765 5763 5761 5757 5754 5753 5755 5760 5764 5768 5772 5777 5779 5781 5782 5782 5782 5781 5779 5776 5772 5769 5767 5764 5762 5760 5757 5755 5753 5751 5749 5747 5744 5742 5740 5737 5735
5781 5778 5773 5769 5766 5761 5758 5755 5753 5751 5749 5747 5747 5751 5756 5761 5767 5771 5775 5778 5780 5780 5780 5780 5779 5776 5772 5769 5766 5764 5761 5758 5755 5753 5751 5749 5747 5745 5743 5741 5739 5736 5734
5774 5771 5768 5764 5759 5755 5752 5750 5746 5743 5742 5741 5737 5738 5747 5756 5762 5768 5773 5775 5776 5776 5776 5775 5775 5773 5771 5767 5764 5761 5759 5756 5753 5751 5749 5747 5745 5743 5741 5739 5737 5735 5733
5766 5763 5759 5756 5753 5749 5745 5743 5740 5735 5734 5734 5729 5725 5728 5740 5752 5764 5766 5768 5769 5771 5770 5770 5769 5768 5766 5765 5761 5758 5755 5753 5750 5748 5746 5744 5742 5741 5739 5737 5735 5733 5731
5758 5755 5752 5750 5746 5742 5738 5736 5734 5728 5725 5726 5726 5720 5717 5721 5732 5746 5753 5756 5759 5760 5761 5762 5762 5762 5760 5759 5757 5755 5752 5750 5747 5744 5742 5740 5738 5737 5736 5734 5733 5731 5730
5749 5746 5745 5743 5740 5737 5734 5731 5728 5724 5720 5717 5719 5720 5720 5719 5716 5724 5736 5742 5747 5749 5751 5752 5753 5753 5753 5752 5751 5749 5746 5744 5741 5739 5737 5735 5734 5733 5732 5731 5730 5729 5727
5742 5739 5737 5735 5732 5730 5728 5724 5722 5719 5717 5713 5712 5713 5714 5714 5714 5711 5717 5726 5732 5738 5741 5743 5743 5743 5743 5743 5742 5741 5737 5735 5732 5731 5730 5729 5728 5728 5727 5727 5727 5726 5725
5734 5732 5730 5727 5724 5722 5721 5718 5716 5713 5711 5708 5707 5707 5706 5705 5705 5706 5709 5714 5718 5725 5731 5733 5733 5733 5734 5733 5733 5730 5729 5726 5724 5723 5723 5722 5721 5721 5721 5721 5722 5722 5722
5723 5723 5721 5718 5717 5715 5714 5712 5709 5706 5705 5702 5700 5700 5701 5702 5702 5703 5702 5704 5708 5716 5721 5723 5724 5724 5724 5723 5723 5721 5720 5718 5717 5716 5715 5713 5712 5712 5713 5714 5715 5716 5716
5713 5713 5711 5709 5708 5707 5706 5704 5702 5700 5699 5697 5695 5695 5694 5696 5698 5698 5697 5696 5697 5703 5707 5710 5714 5715 5714 5714 5713 5712 5712 5711 5709 5708 5707 5705 5705 5704 5704 5705 5706 5708 5709
5702 5700 5699 5696 5696 5696 5696 5695 5693 5692 5692 5690 5689 5689 5688 5689 5691 5693 5694 5693 5689 5687 5690 5698 5700 5704 5705 5705 5704 5704 5704 5702 5701 5699 5697 5696 5696 5695 5696 5697 5699 5700 5702
5688 5686 5684 5683 5683 5683 5684 5684 5683 5684 5683 5682 5682 5682 5681 5682 5684 5686 5687 5688 5687 5683 5681 5687 5689 5692 5693 5695 5695 5695 5695 5694 5692 5690 5688 5687 5687 5687 5687 5689 5691 5694 5697
5672 5671 5670 5670 5670 5670 5672 5673 5674 5675 5674 5674 5674 5674 5674 5675 5676 5678 5680 5681 5680 5679 5675 5678 5681 5683 5683 5683 5685 5685 5685 5685 5683 5681 5679 5678 5678 5678 5678 5680 5682 5686 5690
5657 5656 5656 5656 5657 5659 5661 5663 5664 5666 5665 5664 5664 5665 5666 5668 5667 5668 5671 5672 5672 5672 5669 5667 5669 5671 5672 5673 5674 5674 5675 5676 5674 5672 5670 5669 5668 5668 5669 5671 5674 5678 5683
5644 5644 5643 5644 5646 5648 5650 5653 5655 5655 5654 5654 5654 5654 5655 5656 5657 5659 5661 5661 5662 5664 5662 5659 5658 5659 5660 5661 5662 5663 5663 5663 5664 5662 5661 5659 5659 5659 5660 5662 5665 5669 5674
5634 5633 5633 5635 5637 5639 5641 5642 5643 5643 5643 5643 5644 5644 5645 5645 5646 5649 5649 5649 5651 5652 5651 5649 5647 5646 5646 5647 5648 5649 5649 5650 5650 5651 5650 5650 5650 5650 5650 5652 5655 5659 5665
5626 5625 5625 5627 5630 5630 5631 5632 5633 5633 5633 5634 5634 5635 5635 5635 5636 5637 5638 5637 5638 5638 5638 5636 5633 5632 5631 5631 5632 5634 5634 5637 5637 5637 5638 5639 5640 5641 5642 5642 5645 5648 5654
5621 5620 5620 5621 5622 5622 5622 5624 5626 5626 5627 5627 5627 5627 5628 5628 5627 5627 5627 5627 5627 5625 5622 5621 5619 5618 5616 5618 5620 5621 5622 5623 5623 5626 5626 5628 5629 5630 5631 5632 5633 5638 5642
5617 5616 5615 5614 5614 5613 5616 5617 5619 5620 5620 5620 5620 5621 5623 5620 5619 5619 5619 5619 5618 5617 5615 5613 5609 5607 5607 5607 5608 5610 5611 5611 5611 5613 5616 5616 5618 5619 5621 5621 5623 5626 5631
5614 5613 5612 5610 5609 5608 5609 5610 5612 5614 5614 5614 5613 5613 5612 5610 5610 5610 5613 5613 5612 5610 5609 5607 5605 5602 5601 5600 5599 5600 5601 5602 5603 5603 5605 5604 5606 5608 5611 5612 5613 5615 5618
5611 5610 5608 5606 5604 5602 5602 5603 5604 5607 5607 5606 5606 5604 5605 5603 5602 5605 5607 5605 5604 5601 5601 5600 5599 5597 5594 5592 5590 5589 5588 5588 5588 5590 5592 5592 5595 5598 5601 5602 5604 5606 5608
5610 5608 5605 5604 5601 5599 5597 5598 5598 5603 5602 5600 5598 5596 5595 5596 5596 5596 5597 5596 5593 5592 5593 5594 5592 5590 5587 5584 5581 5579 5576 5574 5574 5576 5579 5581 5584 5587 5590 5593 5596 5598 5600